This demonstration page uses our WeatherBlox Daily Observations layout. Learn more.

Left ArrowRight Arrow

Hourly Observations for June 7, 2019

Temp ( °F °C ) Dew Point ( °F °C ) Humidity (%) Winds ( mph kmh ) Pressure ( in mb ) Visibility ( mi km ) Precip ( " mm )
12:51 am 00:51 Clear 74 23.3 33 0.6 22 22 NW 7 11 29.73 1007 10 16 0.00 0.00
1:51 am 01:51 Clear 78 25.6 35 1.7 21 21 NW 13 20 29.73 1007 10 16 0.00 0.00
2:51 am 02:51 Clear 76 24.4 35 1.7 23 23 WNW 13 20 29.73 1007 10 16 0.00 0.00
3:51 am 03:51 Clear 73 22.8 36 2.2 26 26 NNW 8 13 29.75 1007 10 16 0.00 0.00
4:51 am 04:51 Clear 70 21.1 37 2.8 30 30 NW 7 11 29.76 1008 10 16 0.00 0.00
5:51 am 05:51 Sunny 73 22.8 40 4.4 30 30 NW 9 15 29.78 1008 10 16 0.00 0.00
6:51 am 06:51 Sunny 74 23.3 38 3.3 27 27 SE 5 7 29.80 1009 10 16 0.00 0.00
7:51 am 07:51 Sunny 80 26.7 42 5.6 26 26 VRB 5 7 29.79 1009 10 16 0.00 0.00
8:51 am 08:51 Sunny 84 28.9 42 5.6 23 23 NW 10 17 29.78 1009 10 16 0.00 0.00
9:51 am 09:51 Sunny 86 30 40 4.4 20 20 SW 6 9 29.77 1008 10 16 0.00 0.00
10:51 am 10:51 Sunny 90 32.2 39 3.9 17 17 W 6 9 29.75 1007 10 16 0.00 0.00
11:51 am 11:51 Sunny 93 33.9 36 2.2 13 13 undefined N/A 29.73 1007 10 16 0.00 0.00
12:51 pm 12:51 Sunny 96 35.6 33 0.6 11 11 ENE 6 9 29.70 1006 10 16 0.00 0.00
1:51 pm 13:51 Sunny 97 36.1 26 -3.3 8 8 VRB 5 7 29.66 1004 10 16 0.00 0.00
2:51 pm 14:51 Sunny 97 36.1 30 -1.1 9 9 undefined N/A 29.65 1004 10 16 0.00 0.00
3:51 pm 15:51 Sunny 97 36.1 29 -1.7 9 9 VRB 6 9 29.63 1004 10 16 0.00 0.00
4:51 pm 16:51 Sunny 99 37.2 29 -1.7 8 8 W 13 20 29.62 1003 10 16 0.00 0.00
5:51 pm 17:51 Sunny 95 35 33 0.6 11 11 WNW 15 24 29.62 1003 10 16 0.00 0.00
6:51 pm 18:51 Sunny 93 33.9 31 -0.6 11 11 NW 17 28 29.64 1004 10 16 0.00 0.00
7:51 pm 19:51 Clear 89 31.7 28 -2.2 11 11 NW 12 19 29.65 1004 10 16 0.00 0.00
8:51 pm 20:51 Clear 87 30.6 34 1.1 15 15 NW 14 22 29.67 1005 10 16 0.00 0.00
9:51 pm 21:51 Clear 85 29.4 35 1.7 17 17 NW 13 20 29.70 1006 10 16 0.00 0.00
10:51 pm 22:51 Clear 82 27.8 35 1.7 18 18 NW 10 17 29.70 1006 10 16 0.00 0.00
11:51 pm 23:51 Clear 80 26.7 36 2.2 20 20 NW 9 15 29.70 1006 10 16 0.00 0.00

Powered by AerisWeather